ITY968 LIPY-LIBD

Flight info

Callsign ITY968
Flight time 0h 55m
Altitude 19000
Route MASEG L612 VIE T415 EKMUR
Aircraft A20N/M-SDE2E3FGHIRWXY/LB1

Departure

Time 2026-05-08 05:31
Airport Marche Airport (LIPY)

Arrival

Time 2026-05-08 06:26
Airport Bari Karol Wojtyła International Airport (LIBD)
Time Latitude Longitude Altitude Speed Heading
2026-05-08 05:10 43.60826 13.35552 56 ft 0 kts 134°
2026-05-08 05:24 43.60837 13.35536 51 ft 2 kts 143°
2026-05-08 05:24 43.60850 13.35526 49 ft 2 kts 176°
2026-05-08 05:24 43.60866 13.35528 52 ft 2 kts 209°
2026-05-08 05:24 43.60871 13.35531 52 ft 0 kts 220°
2026-05-08 05:27 43.60861 13.35520 48 ft 4 kts 220°
2026-05-08 05:27 43.60829 13.35477 59 ft 8 kts 224°
2026-05-08 05:28 43.60792 13.35426 53 ft 9 kts 224°
2026-05-08 05:28 43.60751 13.35367 56 ft 9 kts 227°
2026-05-08 05:28 43.60709 13.35294 55 ft 10 kts 238°
2026-05-08 05:28 43.60720 13.35211 53 ft 8 kts 317°
2026-05-08 05:29 43.60768 13.35153 56 ft 10 kts 318°
2026-05-08 05:29 43.60797 13.35116 56 ft 3 kts 323°
2026-05-08 05:29 43.60820 13.35121 54 ft 0 kts 35°
2026-05-08 05:30 43.60823 13.35124 53 ft 3 kts 37°
2026-05-08 05:30 43.60981 13.35343 55 ft 71 kts 45°
2026-05-08 05:30 43.61492 13.36048 53 ft 136 kts 44°
2026-05-08 05:31 43.62251 13.37070 403 ft 155 kts 44°
2026-05-08 05:31 43.63017 13.38105 1166 ft 153 kts 46°
2026-05-08 05:31 43.63764 13.39113 1947 ft 147 kts 48°
2026-05-08 05:31 43.64491 13.40108 2685 ft 147 kts 49°
2026-05-08 05:32 43.65219 13.41119 3447 ft 151 kts 49°
2026-05-08 05:32 43.65994 13.42206 4073 ft 167 kts 49°
2026-05-08 05:32 43.66791 13.43479 4676 ft 183 kts 62°
2026-05-08 05:32 43.67171 13.45216 5235 ft 200 kts 89°
2026-05-08 05:33 43.66801 13.47121 5822 ft 217 kts 118°
2026-05-08 05:33 43.66048 13.48916 6733 ft 220 kts 120°
2026-05-08 05:33 43.65268 13.50753 7711 ft 224 kts 120°
2026-05-08 05:33 43.64474 13.52638 8623 ft 230 kts 120°
2026-05-08 05:34 43.63446 13.54346 9550 ft 235 kts 146°
2026-05-08 05:34 43.61920 13.55140 10412 ft 239 kts 176°
2026-05-08 05:34 43.60260 13.54901 11204 ft 247 kts 191°
2026-05-08 05:34 43.58498 13.54428 11728 ft 266 kts 191°
2026-05-08 05:35 43.56655 13.53926 12563 ft 272 kts 191°
2026-05-08 05:35 43.54787 13.53734 13469 ft 277 kts 172°
2026-05-08 05:35 43.52974 13.54663 14255 ft 284 kts 146°
2026-05-08 05:35 43.51564 13.56590 15024 ft 291 kts 130°
2026-05-08 05:36 43.50278 13.58888 15362 ft 314 kts 128°
2026-05-08 05:36 43.48922 13.61395 15593 ft 338 kts 128°
2026-05-08 05:36 43.47456 13.64067 15816 ft 361 kts 128°
2026-05-08 05:36 43.45903 13.66844 16410 ft 370 kts 129°
2026-05-08 05:37 43.44313 13.69652 17173 ft 374 kts 129°
2026-05-08 05:37 43.42700 13.72481 17934 ft 378 kts 129°
2026-05-08 05:37 43.41062 13.75346 18606 ft 383 kts 129°
2026-05-08 05:37 43.39361 13.78178 18902 ft 384 kts 131°
2026-05-08 05:38 43.37603 13.80947 18995 ft 385 kts 133°
2026-05-08 05:38 43.35837 13.83696 19005 ft 385 kts 133°
2026-05-08 05:38 43.34066 13.86464 19007 ft 384 kts 132°
2026-05-08 05:38 43.32326 13.89201 19006 ft 384 kts 132°
2026-05-08 05:39 43.30565 13.91977 19005 ft 384 kts 132°
2026-05-08 05:39 43.28811 13.94746 19002 ft 385 kts 132°
2026-05-08 05:39 43.27057 13.97515 19002 ft 384 kts 132°
2026-05-08 05:39 43.25319 14.00257 19004 ft 384 kts 132°
2026-05-08 05:40 43.23564 14.03023 19003 ft 384 kts 132°
2026-05-08 05:40 43.21809 14.05787 19006 ft 385 kts 132°
2026-05-08 05:40 43.20051 14.08552 19007 ft 384 kts 132°
2026-05-08 05:40 43.18294 14.11313 19004 ft 384 kts 132°
2026-05-08 05:41 43.16536 14.14075 19005 ft 384 kts 132°
2026-05-08 05:41 43.14777 14.16837 19004 ft 384 kts 132°
2026-05-08 05:41 43.13020 14.19595 19002 ft 384 kts 132°
2026-05-08 05:41 43.11265 14.22352 19005 ft 384 kts 132°
2026-05-08 05:42 43.09510 14.25107 19002 ft 384 kts 132°
2026-05-08 05:42 43.07747 14.27872 19004 ft 384 kts 132°
2026-05-08 05:42 43.05994 14.30616 19004 ft 384 kts 132°
2026-05-08 05:42 43.04237 14.33365 19000 ft 384 kts 132°
2026-05-08 05:43 43.02482 14.36109 18995 ft 384 kts 132°
2026-05-08 05:43 43.00739 14.38829 18995 ft 384 kts 132°
2026-05-08 05:43 42.98957 14.41607 18997 ft 384 kts 132°
2026-05-08 05:43 42.97214 14.44323 18991 ft 384 kts 132°
2026-05-08 05:44 42.95456 14.47059 18994 ft 384 kts 132°
2026-05-08 05:44 42.93692 14.49803 18998 ft 384 kts 132°
2026-05-08 05:44 42.91930 14.52541 18991 ft 384 kts 132°
2026-05-08 05:44 42.90165 14.55280 18993 ft 383 kts 132°
2026-05-08 05:45 42.88406 14.58009 18995 ft 383 kts 132°
2026-05-08 05:45 42.86642 14.60741 18991 ft 383 kts 132°
2026-05-08 05:45 42.84881 14.63467 18991 ft 382 kts 132°
2026-05-08 05:45 42.83143 14.66156 18983 ft 382 kts 132°
2026-05-08 05:46 42.81388 14.68869 18990 ft 382 kts 132°
2026-05-08 05:46 42.79630 14.71584 18988 ft 381 kts 132°
2026-05-08 05:46 42.77876 14.74289 18985 ft 381 kts 132°
2026-05-08 05:46 42.76120 14.76996 18986 ft 381 kts 132°
2026-05-08 05:47 42.74366 14.79695 18989 ft 380 kts 132°
2026-05-08 05:47 42.72610 14.82397 18984 ft 380 kts 133°
2026-05-08 05:47 42.70859 14.85087 18983 ft 380 kts 133°
2026-05-08 05:47 42.69106 14.87778 18979 ft 380 kts 133°
2026-05-08 05:48 42.67354 14.90466 18990 ft 380 kts 133°
2026-05-08 05:48 42.65602 14.93152 18988 ft 379 kts 133°
2026-05-08 05:48 42.63847 14.95837 18985 ft 379 kts 133°
2026-05-08 05:48 42.62096 14.98517 18979 ft 379 kts 133°
2026-05-08 05:49 42.60364 15.01165 18981 ft 380 kts 133°
2026-05-08 05:49 42.58610 15.03842 18986 ft 379 kts 133°
2026-05-08 05:49 42.56858 15.06515 18981 ft 379 kts 133°
2026-05-08 05:49 42.55104 15.09187 18985 ft 380 kts 133°
2026-05-08 05:50 42.53344 15.11866 18982 ft 380 kts 133°
2026-05-08 05:50 42.51583 15.14547 18981 ft 380 kts 133°
2026-05-08 05:50 42.49823 15.17222 18978 ft 380 kts 133°
2026-05-08 05:50 42.48067 15.19889 18978 ft 379 kts 133°
2026-05-08 05:51 42.46306 15.22563 18983 ft 379 kts 133°
2026-05-08 05:51 42.44548 15.25237 18980 ft 379 kts 133°
2026-05-08 05:51 42.42793 15.27908 18979 ft 379 kts 133°
2026-05-08 05:51 42.41057 15.30547 18978 ft 380 kts 133°
2026-05-08 05:52 42.39299 15.33216 18979 ft 380 kts 133°
2026-05-08 05:52 42.37540 15.35882 18979 ft 380 kts 133°
2026-05-08 05:52 42.35779 15.38550 18986 ft 380 kts 133°
2026-05-08 05:52 42.34012 15.41224 18985 ft 380 kts 133°
2026-05-08 05:53 42.32250 15.43887 18985 ft 380 kts 133°
2026-05-08 05:53 42.30486 15.46553 18986 ft 381 kts 133°
2026-05-08 05:53 42.28727 15.49204 18984 ft 380 kts 133°
2026-05-08 05:53 42.26961 15.51854 18980 ft 380 kts 133°
2026-05-08 05:54 42.25184 15.54516 18980 ft 381 kts 133°
2026-05-08 05:54 42.23411 15.57171 18982 ft 381 kts 133°
2026-05-08 05:54 42.21633 15.59831 18978 ft 380 kts 133°
2026-05-08 05:54 42.19865 15.62477 18981 ft 380 kts 133°
2026-05-08 05:55 42.18087 15.65133 18965 ft 380 kts 133°
2026-05-08 05:55 42.16319 15.67773 18969 ft 380 kts 133°
2026-05-08 05:55 42.14567 15.70387 18963 ft 380 kts 133°
2026-05-08 05:55 42.12789 15.73037 18968 ft 381 kts 133°
2026-05-08 05:56 42.11008 15.75689 18966 ft 381 kts 133°
2026-05-08 05:56 42.09229 15.78336 18948 ft 381 kts 133°
2026-05-08 05:56 42.07443 15.80991 18952 ft 381 kts 133°
2026-05-08 05:56 42.05661 15.83636 18954 ft 382 kts 133°
2026-05-08 05:57 42.03876 15.86284 18943 ft 382 kts 133°
2026-05-08 05:57 42.02088 15.88935 18946 ft 382 kts 133°
2026-05-08 05:57 42.00318 15.91556 18951 ft 383 kts 133°
2026-05-08 05:57 41.98521 15.94216 18940 ft 384 kts 133°
2026-05-08 05:58 41.96725 15.96871 18941 ft 384 kts 133°
2026-05-08 05:58 41.95530 15.98636 18937 ft 384 kts 133°
2026-05-08 05:58 41.93731 16.01291 18954 ft 384 kts 133°
2026-05-08 05:58 41.91272 16.04729 18957 ft 384 kts 139°
2026-05-08 05:59 41.89182 16.06956 18957 ft 384 kts 146°
2026-05-08 05:59 41.87003 16.09022 18961 ft 384 kts 145°
2026-05-08 05:59 41.85532 16.10425 18963 ft 384 kts 145°
2026-05-08 05:59 41.83385 16.12479 18968 ft 383 kts 145°
2026-05-08 06:00 41.81216 16.14557 18966 ft 383 kts 145°
2026-05-08 06:00 41.79051 16.16628 18885 ft 381 kts 145°
2026-05-08 06:00 41.76898 16.18686 18552 ft 379 kts 145°
2026-05-08 06:00 41.74755 16.20731 18065 ft 377 kts 145°
2026-05-08 06:01 41.72627 16.22761 17494 ft 373 kts 145°
2026-05-08 06:01 41.70522 16.24768 16924 ft 370 kts 145°
2026-05-08 06:01 41.68436 16.26756 16372 ft 366 kts 145°
2026-05-08 06:01 41.66374 16.28719 15830 ft 362 kts 144°
2026-05-08 06:02 41.64320 16.30671 15301 ft 359 kts 144°
2026-05-08 06:02 41.62299 16.32592 14787 ft 355 kts 144°
2026-05-08 06:02 41.60317 16.34473 14280 ft 352 kts 144°
2026-05-08 06:02 41.58328 16.36358 13779 ft 348 kts 144°
2026-05-08 06:03 41.56357 16.38225 13240 ft 345 kts 144°
2026-05-08 06:03 41.54412 16.40066 12704 ft 341 kts 144°
2026-05-08 06:03 41.52486 16.41891 12174 ft 338 kts 144°
2026-05-08 06:03 41.50576 16.43698 11653 ft 335 kts 144°
2026-05-08 06:04 41.49054 16.45137 11239 ft 332 kts 144°
2026-05-08 06:04 41.47175 16.46913 10744 ft 329 kts 144°
2026-05-08 06:04 41.45335 16.48650 10290 ft 326 kts 144°
2026-05-08 06:04 41.43525 16.50357 10145 ft 311 kts 144°
2026-05-08 06:05 41.41771 16.51931 10024 ft 298 kts 149°
2026-05-08 06:05 41.39945 16.53101 9906 ft 285 kts 158°
2026-05-08 06:05 41.38106 16.54009 9606 ft 279 kts 158°
2026-05-08 06:05 41.36298 16.54914 9228 ft 276 kts 158°
2026-05-08 06:06 41.34514 16.55813 9012 ft 271 kts 158°
2026-05-08 06:06 41.32737 16.56711 8963 ft 277 kts 158°
2026-05-08 06:06 41.30938 16.57619 8964 ft 276 kts 158°
2026-05-08 06:06 41.29145 16.58521 8964 ft 277 kts 158°
2026-05-08 06:07 41.27343 16.59428 8963 ft 277 kts 158°
2026-05-08 06:07 41.25537 16.60337 8964 ft 277 kts 158°
2026-05-08 06:07 41.23730 16.61245 8964 ft 278 kts 158°
2026-05-08 06:07 41.21923 16.62153 8965 ft 278 kts 158°
2026-05-08 06:08 41.20132 16.63051 8965 ft 278 kts 159°
2026-05-08 06:08 41.18319 16.63957 8967 ft 278 kts 159°
2026-05-08 06:08 41.16514 16.64854 8967 ft 279 kts 159°
2026-05-08 06:08 41.14700 16.65754 8967 ft 279 kts 159°
2026-05-08 06:09 41.12881 16.66657 8966 ft 278 kts 159°
2026-05-08 06:09 41.11065 16.67559 8966 ft 279 kts 159°
2026-05-08 06:09 41.09247 16.68461 8965 ft 279 kts 159°
2026-05-08 06:09 41.07429 16.69363 8966 ft 279 kts 159°
2026-05-08 06:10 41.05616 16.70261 8968 ft 278 kts 160°
2026-05-08 06:10 41.03723 16.70681 8970 ft 283 kts 183°
2026-05-08 06:10 41.01830 16.69954 8965 ft 285 kts 208°
2026-05-08 06:10 41.00380 16.68212 8959 ft 283 kts 235°
2026-05-08 06:11 40.99573 16.65818 8942 ft 291 kts 252°
2026-05-08 06:11 40.99065 16.63226 8937 ft 291 kts 255°
2026-05-08 06:11 40.98565 16.60673 8928 ft 282 kts 253°
2026-05-08 06:11 40.97990 16.58158 8948 ft 290 kts 251°
2026-05-08 06:12 40.97341 16.55647 8933 ft 285 kts 249°
2026-05-08 06:12 40.96655 16.53173 8940 ft 288 kts 248°
2026-05-08 06:12 40.95946 16.50691 8942 ft 288 kts 248°
2026-05-08 06:12 40.95241 16.48240 8968 ft 287 kts 248°
2026-05-08 06:13 40.94531 16.45772 8967 ft 287 kts 248°
2026-05-08 06:13 40.93820 16.43301 8967 ft 287 kts 248°
2026-05-08 06:13 40.93112 16.40835 8963 ft 287 kts 248°
2026-05-08 06:13 40.92402 16.38363 8966 ft 287 kts 248°
2026-05-08 06:14 40.91689 16.35890 8966 ft 287 kts 248°
2026-05-08 06:14 40.90978 16.33423 8963 ft 287 kts 248°
2026-05-08 06:14 40.90265 16.30954 8963 ft 287 kts 248°
2026-05-08 06:14 40.89551 16.28484 8962 ft 288 kts 248°
2026-05-08 06:15 40.88838 16.26015 8962 ft 288 kts 248°
2026-05-08 06:15 40.88323 16.23486 8963 ft 288 kts 266°
2026-05-08 06:15 40.88615 16.20915 8898 ft 286 kts 291°
2026-05-08 06:15 40.89687 16.18763 8535 ft 284 kts 317°
2026-05-08 06:16 40.91360 16.17429 8091 ft 283 kts 341°
2026-05-08 06:16 40.93257 16.16774 7649 ft 284 kts 351°
2026-05-08 06:16 40.95204 16.16911 7238 ft 281 kts 19°
2026-05-08 06:16 40.96863 16.18153 6886 ft 275 kts 45°
2026-05-08 06:17 40.98567 16.22528 6143 ft 268 kts 71°
2026-05-08 06:17 40.99212 16.24820 5770 ft 266 kts 71°
2026-05-08 06:17 40.99859 16.27104 5395 ft 265 kts 71°
2026-05-08 06:18 41.00512 16.29385 5023 ft 264 kts 71°
2026-05-08 06:18 41.01163 16.31643 4636 ft 260 kts 71°
2026-05-08 06:18 41.01796 16.33833 4255 ft 252 kts 71°
2026-05-08 06:18 41.02413 16.35969 3865 ft 245 kts 71°
2026-05-08 06:19 41.03012 16.38046 3493 ft 238 kts 72°
2026-05-08 06:19 41.03648 16.40052 3142 ft 232 kts 69°
2026-05-08 06:19 41.04251 16.41927 3007 ft 216 kts 71°
2026-05-08 06:19 41.04779 16.43722 3004 ft 209 kts 72°
2026-05-08 06:20 41.05281 16.45519 2998 ft 207 kts 72°
2026-05-08 06:20 41.05779 16.47303 3002 ft 207 kts 73°
2026-05-08 06:20 41.06280 16.49098 2999 ft 208 kts 72°
2026-05-08 06:20 41.06780 16.50882 3001 ft 204 kts 73°
2026-05-08 06:21 41.07255 16.52574 3001 ft 186 kts 73°
2026-05-08 06:21 41.07702 16.54181 3011 ft 187 kts 73°
2026-05-08 06:21 41.08148 16.55770 3026 ft 178 kts 73°
2026-05-08 06:21 41.08566 16.57256 2938 ft 166 kts 73°
2026-05-08 06:22 41.08959 16.58659 2680 ft 158 kts 75°
2026-05-08 06:22 41.09327 16.59969 2442 ft 144 kts 74°
2026-05-08 06:22 41.09654 16.61128 2253 ft 125 kts 75°
2026-05-08 06:22 41.09958 16.62230 2091 ft 130 kts 75°
2026-05-08 06:23 41.10268 16.63330 1924 ft 127 kts 75°
2026-05-08 06:23 41.10574 16.64420 1751 ft 123 kts 75°
2026-05-08 06:23 41.10875 16.65494 1595 ft 126 kts 75°
2026-05-08 06:23 41.11181 16.66580 1427 ft 126 kts 75°
2026-05-08 06:24 41.11489 16.67676 1251 ft 126 kts 73°
2026-05-08 06:24 41.11796 16.68768 1086 ft 128 kts 72°
2026-05-08 06:24 41.12106 16.69870 910 ft 126 kts 72°
2026-05-08 06:24 41.12414 16.70965 736 ft 127 kts 71°
2026-05-08 06:25 41.12724 16.72072 568 ft 128 kts 72°
2026-05-08 06:25 41.13035 16.73182 368 ft 129 kts 70°
2026-05-08 06:25 41.13358 16.74282 197 ft 127 kts 71°
2026-05-08 06:25 41.13640 16.75291 140 ft 93 kts 70°
2026-05-08 06:26 41.13794 16.75863 136 ft 50 kts 68°
2026-05-08 06:26 41.13907 16.76267 124 ft 44 kts 71°
2026-05-08 06:26 41.13992 16.76554 123 ft 21 kts 76°
2026-05-08 06:26 41.13988 16.76655 125 ft 7 kts 101°
2026-05-08 06:27 41.13973 16.76711 125 ft 6 kts 114°
2026-05-08 06:27 41.13958 16.76727 121 ft 0 kts 194°
2026-05-08 06:27 41.13940 16.76714 122 ft 8 kts 206°
2026-05-08 06:27 41.13887 16.76671 125 ft 8 kts 213°
2026-05-08 06:28 41.13852 16.76640 126 ft 4 kts 214°
2026-05-08 06:28 41.13833 16.76619 133 ft 8 kts 224°
2026-05-08 06:28 41.13794 16.76565 135 ft 7 kts 197°
2026-05-08 06:28 41.13741 16.76561 136 ft 9 kts 188°
2026-05-08 06:29 41.13682 16.76523 136 ft 10 kts 219°
2026-05-08 06:29 41.13662 16.76496 136 ft 2 kts 227°
2026-05-08 06:29 41.13644 16.76486 136 ft 4 kts 192°
2026-05-08 06:29 41.13612 16.76497 136 ft 6 kts 160°
2026-05-08 06:30 41.13577 16.76513 136 ft 0 kts 161°
2026-05-08 06:30 41.13574 16.76515 136 ft 0 kts 160°